Погода в Куркенте

Россия / Республика Дагестан     41°42′42″N   48°06′53″E
темп.,
°C
ветер,
м/с
пор.,
м/с
влажн.,
%
обл.,
%
осадки,
мм/ч
давл.,
гПа
погр.,
м
26 июня, вс
вс2600:00+17з2285100 0.0 100913
03:00+16зсз2281100 0.0 100912
06:00+18зюз1276100 0.0 1009103
09:00+22юв3365100 0.0 1008777
12:00+25вюв3451100 0.0 10051168
15:00+24в3159100 0.1 1005689
18:00+21всв226999 0.3 1006282
21:00+18зсз2183100 0.6 100812
27 июня, пн
пн2700:00+17з22845 0.1 100812
03:00+17з33780 0.1 100821
06:00+20з01660 0.0 100966
09:00+24всв32550 0.0 1008761
12:00+27всв42490 0.0 10081429
15:00+27св434942 0.0 10071600
18:00+25с22563 0.1 1007505
21:00+20з32730 0.1 100818
28 июня, вт
вт2800:00+19з32660 0.0 100817
03:00+18з22650 0.0 100814
06:00+20сз11600 0.0 100899
09:00+24всв32540 0.0 1008851
12:00+26св434717 0.0 10081419
15:00+25ссв654920 0.0 10081261
18:00+21ссв336619 0.0 1011480
21:00+16зюз118524 0.0 101461
29 июня, ср
ср2900:00+16з118415 0.0 101411
03:00+16з227911 0.0 101413
06:00+19зсз116610 0.1 1014164
09:00+22св324228 0.1 10141322
12:00+24в433523 0.0 10131794
15:00+24в433714 0.0 10131564
18:00+20всв22540 0.0 1015617
21:00+15зюз11790 0.0 101611
30 июня, чт
чт3000:00+14зюз11780 0.0 101611
03:00+13зюз11770 0.0 101610
06:00+15в107626 0.0 1016169
09:00+19в326724 0.0 1014832
12:00+20в3269100 0.1 1014941
15:00+17св2277100 0.2 1015660
18:00+16св217491 0.1 1016347
21:00+13ссз118024 0.1 101712